Weather History for Pompano Beach, FL

Change the Weather History Date:

Friday, March 14, 2014

  Actual Average Record
Temperature  
Mean Temperature 66 °F -  
Max Temperature 75 °F 80 °F 91 °F (1952)
Min Temperature 60 °F 62 °F 40 °F (1993)
Cooling Degree Days 2    
Growing Degree Days 16 (Base 50)    
Moisture  
Dew Point 50 °F    
Average Humidity 53    
Maximum Humidity 62    
Minimum Humidity 46    
Precipitation  
Precipitation 0.00 in - - ()
Sea Level Pressure  
Sea Level Pressure 30.20 in    
Wind  
Wind Speed 11 mph (NE)    
Max Wind Speed 17 mph    
Max Gust Speed 24 mph    
Visibility 10 miles    
Events      
Averages and records for this station are not official NWS values.
T = Trace of Precipitation, MM = Missing Value Source: NWS Daily Summary

Daily Weather History Graph

Daily Weather History Graph

Search for Another Location

Airport:

Trip Planner

Search our weather history database for the weather conditions in past years. The results will help you decide how hot, cold, wet, or windy it might be!

Date:

Astronomy

Mar. 14, 2014 Rise Set
Actual Time 7:30 AM EDT 7:28 PM EDT
Civil Twilight 7:07 AM EDT 7:51 PM EDT
Nautical Twilight 6:40 AM EDT 8:18 PM EDT
Astronomical Twilight 6:14 AM EDT 8:45 PM EDT
Moon 5:55 PM EDT (3/14) 6:01 AM EDT (3/14)
Length of Visible Light 12h 44m
Length of Day
11h 57m
Waxing Gibbous, 96% of the Moon is Illuminated
Mar 14
Waxing Gibbous
Mar 16
Full
Mar 23
Last Quarter
Mar 30
New
Apr 7
First Quarter

Hourly Weather History & Observations

Time (EDT) Temp. Dew Point Humidity Pressure Visibility Wind Dir Wind Speed Gust Speed Precip Events Conditions
12:53 AM 61.0 °F 44.1 °F 54% 30.18 in 10.0 mi NNW 8.1 mph - N/A   Clear
1:53 AM 62.1 °F 44.1 °F 52% 30.18 in 10.0 mi NNW 9.2 mph - N/A   Mostly Cloudy
2:53 AM 61.0 °F 46.0 °F 58% 30.17 in 10.0 mi NNW 8.1 mph - N/A   Mostly Cloudy
3:53 AM 61.0 °F 46.0 °F 58% 30.16 in 10.0 mi North 6.9 mph - N/A   Mostly Cloudy
4:53 AM 60.1 °F 46.0 °F 60% 30.16 in 10.0 mi NNW 9.2 mph - N/A   Scattered Clouds
5:53 AM 61.0 °F 48.0 °F 62% 30.17 in 10.0 mi NNW 8.1 mph - N/A   Mostly Cloudy
6:53 AM 66.9 °F 51.1 °F 57% 30.18 in 10.0 mi ENE 15.0 mph 21.9 mph N/A   Overcast
7:53 AM 66.9 °F 52.0 °F 59% 30.19 in 10.0 mi ENE 12.7 mph 19.6 mph N/A   Scattered Clouds
8:53 AM 66.9 °F 48.9 °F 52% 30.22 in 10.0 mi NE 13.8 mph - N/A   Scattered Clouds
9:53 AM 70.0 °F 48.9 °F 47% 30.25 in 10.0 mi ENE 16.1 mph 20.7 mph N/A   Clear
10:53 AM 71.1 °F 50.0 °F 47% 30.26 in 10.0 mi ENE 12.7 mph - N/A   Clear
11:53 AM 73.0 °F 51.1 °F 46% 30.27 in 10.0 mi East 15.0 mph 24.2 mph N/A   Scattered Clouds
12:53 PM 73.0 °F 52.0 °F 48% 30.25 in 10.0 mi East 17.3 mph - N/A   Scattered Clouds
1:53 PM 73.9 °F 52.0 °F 46% 30.23 in 10.0 mi ENE 16.1 mph - N/A   Scattered Clouds
2:53 PM 73.0 °F 52.0 °F 48% 30.22 in 10.0 mi ENE 15.0 mph - N/A   Scattered Clouds
3:53 PM 73.0 °F 51.1 °F 46% 30.22 in 10.0 mi ENE 11.5 mph - N/A   Scattered Clouds
4:53 PM 73.0 °F 53.1 °F 49% 30.20 in 10.0 mi ENE 12.7 mph - N/A   Partly Cloudy
5:53 PM 72.0 °F 54.0 °F 53% 30.19 in 10.0 mi ENE 11.5 mph - N/A   Scattered Clouds
6:53 PM 71.1 °F 53.1 °F 53% 30.19 in 10.0 mi East 11.5 mph - N/A   Scattered Clouds
7:53 PM 71.1 °F 54.0 °F 55% 30.18 in 10.0 mi East 11.5 mph - N/A   Scattered Clouds
8:53 PM 71.1 °F 55.0 °F 57% 30.17 in 10.0 mi East 13.8 mph - N/A   Scattered Clouds
9:53 PM 71.1 °F 52.0 °F 51% 30.19 in 10.0 mi East 9.2 mph - N/A   Mostly Cloudy
10:53 PM 71.1 °F 52.0 °F 51% 30.19 in 10.0 mi East 8.1 mph - N/A   Mostly Cloudy
11:53 PM 71.1 °F 55.0 °F 57% 30.19 in 10.0 mi East 6.9 mph - N/A   Mostly Cloudy